Location: Favalello
(42.2939°N, 9.2706°E)
Time: 21:11:39
(UTC+00:00)

SL-4 R/B - Pass Details

Date: 06 December 2019
Orbit: 428 x 667 km, 51.6° (Epoch: 29 January)

Event Time Altitude Azimuth Distance (km) Brightness Sun altitude
Rises 17:30:16 0° 261° (W) 2,514 7.1 -17.8°
Reaches altitude 10° 17:32:28 10° 270° (W) 1,674 5.7 -18.2°
Maximum altitude 17:36:00 36° 338° (NNW) 828 2.9 -18.9°
Enters shadow 17:37:09 29° 15° (NNE) 972 3.0 -19.1°
